STARLINK-6362, 57350

Orbit data source: Space-Track

STARLINK-6362, 57350 is a payload satellite owned by SpaceX/Seattle (US) in LEO that was launched on Sun, 16 Jul 2023 UTC via an FALCON 9 launch vehicle from the Air Force Eastern Test Range (AFETR). Payload-class satellites include a variety of spacecraft equipped with specific instruments for various scientific and technological missions. These include communications satellites like Starlink; space stations such as the ISS; scientific satellites like the Hubble; Earth observation satellites from companies like Planet Labs, Umbra, and HawkEye 360; GPS; miniature CubeSats for education and research; and military/defense satellites.

Loading next visibility...
Identifier
57350, 2023-099Y
Orbit
LEO
Country
Flag of USUS
Related business
Manufacturer
SpaceX/Seattle
Mission
Operational Commercial Communications
Bus & Motor
STARLINK, Unknown motor
Mass
305 kg wet, ~290 kg dry
Launch date (UTC)
2023-07-16 (3 years ago)
Launch vehicle
FALCON 9
Launch site
Air Force Eastern Test Range (AFETR)
Object type
Payload
Rocket body
Debris
Shape & HBR
Box + 1 Pan, 10.1 m
Radar Cross Section
11.087 m², Large (>1 m²)

Expand to show TLE details & history
Last TLE update: 2 days ago

TLE from 2 days ago
0 STARLINK-6362
1 57350U 23099Y   26170.99519234  .00000854  00000-0  40571-4 0  9999
2 57350  43.0023  24.0890 0001540 278.3360  81.7317 15.27581227161832
Epoch: 2026-06-19T23:53Z
TLE epoch observation values (Epoch: 2026-06-19T23:53:04.618Z)
Latitude
-0.00001°
Longitude
117.60358°
Altitude
482.669 km
Speed
7.626 km/s
True Right ascension
01h 36m 21s
True Declination
0° 00' 00"
Sunlit
Object was in daylight at epoch
Visualization orbit readout
Latitude
Unknown
Longitude
Unknown
Altitude
Unknown
Speed
Unknown
Apparent Right ascension
Unknown
Apparent Declination
Unknown
Sunlit
N/A
Visualization observer readout
Local Sidereal Time
21:32:48
Azimuth
Unknown
Elevation
Unknown
Doppler factor
Unknown
Orbital elements
Apogee altitude
486.047 km
Perigee altitude
483.933 km
Semi-major axis
6,863.127 km
Eccentricity
0.00015
Inclination
43.0023°
RAAN
24.089°
Arg. of periapsis
278.336°
True anomaly
81.74916°
Mean anomaly
81.7317°
Eccentric anomaly
81.74043°
Mean motion
3.81733 °/min
Orbital period
94.31 mins
BSTAR
0.000040571
Loading maneuver chart data...
Computing Atmospheric mass density...
Loading historical data...
Loading historical data...
Loading historical data...
Loading historical data...
Loading historical data...
Loading historical data...
Loading historical data...

Documentation

Showing up to 5 results
|